Location: Unspecified
(29.9680°N, 0.0000°E)
Time: 02:31:33
(UTC+00:00)

Vanguard 2 - All Passes

Search period start: 16 June 2019 00:00
Search period end: 26 June 2019 00:00
Orbit: 552 x 2939 km, 32.9° (Epoch: 15 June)

Date Brightness Start Highest point End Pass type
(mag) Time Alt. Az. Time Alt. Az. Time Alt. Az.
16 Jun - 08:12:54 10° SW 08:18:24 43° SE 08:27:14 10° ENE daylight
16 Jun - 10:19:56 10° W 10:27:37 85° NNW 10:40:58 10° ENE daylight
16 Jun - 12:28:31 10° W 12:39:05 80° N 12:55:49 10° E daylight
16 Jun - 14:37:58 10° WNW 14:51:35 74° SSW 15:09:34 10° ESE daylight
16 Jun - 16:49:28 10° W 17:03:51 39° SW 17:19:14 10° SSE daylight
16 Jun - 19:11:10 10° WSW 19:15:03 11° SW 19:18:52 10° SSW daylight
17 Jun - 06:27:33 10° SSE 06:28:52 11° SE 06:30:18 10° ESE daylight
17 Jun - 08:30:25 10° SW 08:36:08 59° SSE 08:45:42 10° ENE daylight
17 Jun - 10:37:58 10° W 10:45:51 79° N 10:59:29 10° E daylight
17 Jun - 12:46:35 10° WNW 12:57:26 85° NNE 13:14:23 10° ESE daylight
17 Jun - 14:56:09 10° WNW 15:09:45 64° SSW 15:27:25 10° SE daylight
17 Jun - 17:08:32 10° W 17:21:46 30° SW 17:35:45 10° SSE daylight
18 Jun - 06:42:51 10° S 06:46:18 19° SE 06:50:43 10° E daylight
18 Jun - 08:48:08 10° WSW 08:54:02 76° SSE 09:04:05 10° ENE daylight
18 Jun - 10:56:01 10° W 11:04:08 76° N 11:18:04 10° E daylight
18 Jun - 13:04:39 10° WNW 13:15:43 88° SSW 13:32:49 10° ESE daylight
18 Jun - 15:14:26 10° WNW 15:27:53 53° SSW 15:44:57 10° SE daylight
18 Jun - 17:28:19 10° W 17:39:42 22° SW 17:51:36 10° S daylight
19 Jun - 06:59:38 10° SSW 07:03:48 29° SE 07:09:41 10° E daylight
19 Jun - 09:06:02 10° WSW 09:12:04 89° N 09:22:28 10° ENE daylight
19 Jun - 11:14:04 10° W 11:22:25 77° N 11:36:42 10° E daylight
19 Jun - 13:22:43 10° WNW 13:33:57 78° SSW 13:51:05 10° ESE daylight
19 Jun - 15:32:53 10° W 15:45:58 43° SSW 16:02:10 10° SSE daylight
19 Jun - 17:49:29 10° WSW 17:57:42 15° SW 18:06:09 10° SSW daylight
20 Jun - 07:16:56 10° SW 07:21:26 43° SSE 07:28:13 10° E daylight
20 Jun - 09:24:00 10° W 09:30:11 79° N 09:40:53 10° ENE daylight
20 Jun - 11:32:06 10° WNW 11:40:41 81° N 11:55:17 10° E daylight
20 Jun - 13:40:48 10° WNW 13:52:09 68° SSW 14:09:06 10° SE daylight
20 Jun - 15:51:40 10° W 16:04:02 34° SW 16:18:57 10° SSE daylight
21 Jun - 07:34:31 10° SW 07:39:14 62° SSE 07:46:35 10° ENE daylight
21 Jun - 09:42:01 10° W 09:48:22 74° N 09:59:22 10° E daylight
21 Jun - 11:50:07 10° WNW 11:58:54 88° NNE 12:13:48 10° ESE daylight
21 Jun - 13:58:58 10° WNW 14:10:18 57° SSW 14:26:51 10° SE daylight
21 Jun - 16:10:56 10° W 16:22:08 26° SW 16:35:12 10° S daylight
22 Jun - 05:46:35 10° S 05:49:29 18° SE 05:52:53 10° E daylight
22 Jun - 07:52:19 10° WSW 07:57:09 82° SSE 08:04:53 10° ENE daylight
22 Jun - 10:00:03 10° W 10:06:35 73° N 10:17:54 10° E daylight
22 Jun - 12:08:07 10° WNW 12:17:06 83° SSW 12:32:10 10° ESE daylight
22 Jun - 14:17:16 10° W 14:28:27 46° SSW 14:44:15 10° SE daylight
22 Jun - 16:31:06 10° WSW 16:40:15 18° SW 16:50:31 10° S daylight
23 Jun - 06:03:31 10° SSW 06:07:07 29° SSE 06:11:40 10° E daylight
23 Jun - 08:10:15 10° W 08:15:11 82° NNW 08:23:10 10° ENE daylight
23 Jun - 10:18:03 10° WNW 10:24:46 76° N 10:36:27 10° E daylight
23 Jun - 12:26:08 10° WNW 12:35:16 71° SSW 12:50:21 10° ESE daylight
23 Jun - 14:35:49 10° W 14:46:37 36° SSW 15:01:17 10° SSE daylight
23 Jun - 16:53:45 10° SW 16:58:30 12° SW 17:03:30 10° SSW daylight
24 Jun - 06:20:56 10° SW 06:24:51 45° SSE 06:30:05 10° E daylight
24 Jun - 08:28:15 10° W 08:33:17 72° N 08:41:30 10° E daylight
24 Jun - 10:36:02 10° WNW 10:42:56 82° NNE 10:54:58 10° E daylight
24 Jun - 12:44:12 10° W 12:53:25 59° SSW 13:08:16 10° SE daylight
24 Jun - 14:54:46 10° W 15:04:48 28° SSW 15:17:49 10° SSE daylight
25 Jun - 04:33:51 10° SSE 04:35:09 11° SE 04:36:28 10° SE visible
25 Jun - 06:38:38 10° WSW 06:42:42 68° SSE 06:48:20 10° ENE daylight
25 Jun - 08:46:15 10° W 08:51:25 68° N 08:59:54 10° E daylight
25 Jun - 10:54:00 10° WNW 11:01:04 88° SSW 11:13:24 10° ESE daylight
25 Jun - 13:02:25 10° W 13:11:34 48° SSW 13:25:52 10° SE daylight
25 Jun - 15:14:24 10° WSW 15:23:02 20° SW 15:33:34 10° S daylight
